TEVEL2-8

Last updated on Wed Sep 09 2026 00:03:15 GMT+0000 (Coordinated Universal Time)

1 63239U 25052AF 26251.18160380 .00017209 00000+0 52686-3 0 9998 2 63239 97.3820 146.2841 0005244 185.3017 174.8172 15.33874605 82732
UTC large
Height (km)
Speed (km/s)
/
Latitude / Longitude
Inclination (degrees)
Orbital Period (minutes)
Azimuth
Elevation
Range (km)
Doppler Factor

Next 0 passes for location: London (51.5072 / 0.1276)

No passes found over London.
TEVEL2-8